Location: Unspecified
(0.0000°N, 0.0000°E)
Time: 18:14:36
(UTC+00:00)

Vanguard 3 - Pass Details

Date: 26 September 2023
Orbit: 507 x 3241 km, 33.3° (Epoch: 29 November)

Event Time Altitude Azimuth Distance (km) Brightness Sun altitude
Rises 11:10:45 0° 219° (SW) 6,259 11.6 79.8°
Reaches altitude 10° 11:16:08 10° 205° (SSW) 5,618 11.5 81.1°
Maximum altitude 11:29:38 24° 157° (SSE) 5,005 11.6 84.4°
Drops below altitude 10° 11:43:54 10° 110° (ESE) 6,023 11.8 87.7°
Sets 11:49:51 0° 97° (E) 6,795 11.9 88.7°
